STARLINK-34058, 63818

Orbit data source: Space-Track

STARLINK-34058, 63818 is a payload satellite owned by SpaceX/Seattle (US) in LEO that was launched on Sun, 04 May 2025 UTC via an FALCON 9 launch vehicle from the Air Force Eastern Test Range (AFETR). Payload-class satellites include a variety of spacecraft equipped with specific instruments for various scientific and technological missions. These include communications satellites like Starlink; space stations such as the ISS; scientific satellites like the Hubble; Earth observation satellites from companies like Planet Labs, Umbra, and HawkEye 360; GPS; miniature CubeSats for education and research; and military/defense satellites.

Loading next visibility...
Identifier
63818, 2025-092Q
Orbit
LEO
Country
Flag of USUS
Related business
Manufacturer
SpaceX/Seattle
Mission
Operational Commercial Communications
Bus & Motor
STARLINK V2MO, Unknown motor
Mass
575 kg wet, ~530 kg dry
Launch date (UTC)
2025-05-04 (1 year ago)
Launch vehicle
FALCON 9
Launch site
Air Force Eastern Test Range (AFETR)
Object type
Payload
Rocket body
Debris
Shape & HBR
Box + 2 Pan, 17.7 m
Radar Cross Section
36.964 m², Large (>1 m²)

Expand to show TLE details & history
Last TLE update: 8 hours ago

TLE from 8 hours ago
0 STARLINK-34058
1 63818U 25092Q   26163.79453660  .00020381  00000-0  74702-3 0  9999
2 63818  42.9996 355.1043 0000443 180.0304 180.0547 15.27627124 63219
Epoch: 2026-06-12T19:04Z
TLE epoch observation values (Epoch: 2026-06-12T19:04:07.962Z)
Latitude
-0.00005°
Longitude
167.9522°
Altitude
482.987 km
Speed
7.626 km/s
True Right ascension
23h 40m 25s
True Declination
0° 00' 00"
Sunlit
Object was in daylight at epoch
Visualization orbit readout
Latitude
Unknown
Longitude
Unknown
Altitude
Unknown
Speed
Unknown
Apparent Right ascension
Unknown
Apparent Declination
Unknown
Sunlit
N/A
Visualization observer readout
Local Sidereal Time
13:19:52
Azimuth
Unknown
Elevation
Unknown
Doppler factor
Unknown
Orbital elements
Apogee altitude
485.157 km
Perigee altitude
484.549 km
Semi-major axis
6,862.99 km
Eccentricity
0.00004
Inclination
42.9996°
RAAN
355.1043°
Arg. of periapsis
180.0304°
True anomaly
180.0547°
Mean anomaly
180.0547°
Eccentric anomaly
180.0547°
Mean motion
3.81745 °/min
Orbital period
94.3 mins
BSTAR
0.00074702
Loading maneuver chart data...
Computing Atmospheric mass density...
Loading historical data...
Loading historical data...
Loading historical data...
Loading historical data...
Loading historical data...
Loading historical data...
Loading historical data...

Documentation

Showing up to 5 results
|